This demonstration page uses our WeatherBlox Daily Observations layout. Learn more.

Left ArrowRight Arrow

39.92423, -83.80882

Hourly Observations for March 19, 2021

Temp ( °F °C ) Dew Point ( °F °C ) Humidity (%) Winds ( mph kmh ) Pressure ( in mb ) Visibility ( mi km ) Precip ( " mm )
12:56 am 00:56 Cloudy 37 2.8 32 undefined 82 82 NNE 24 39 30.04 1017 10 16 N/A
1:41 am 01:41 Partly Cloudy 36 2 30 -1 81 81 NNE 29 46 30.07 1018 10 16 N/A
1:56 am 01:56 Mostly Clear 35 1.7 30 -1.1 82 82 NNE 28 44 30.07 1018 10 16 N/A
2:56 am 02:56 Clear 34 1.1 26 -3.3 73 73 NNE 25 41 30.11 1020 10 16 N/A
3:56 am 03:56 Clear 33 0.6 24 -4.4 70 70 NNE 22 35 30.14 1021 10 16 N/A
4:56 am 04:56 Clear 32 undefined 23 -5 69 69 NNE 22 35 30.17 1022 10 16 N/A
5:56 am 05:56 Clear 31 -0.6 22 -5.6 69 69 NNE 25 41 30.22 1023 10 16 N/A
6:56 am 06:56 Clear 30 -1.1 22 -5.6 72 72 NNE 20 31 30.26 1025 10 16 N/A
7:56 am 07:56 Sunny 29 -1.7 22 -5.6 75 75 NNE 16 26 30.29 1026 10 16 N/A
8:56 am 08:56 Sunny 31 -0.6 22 -5.6 69 69 NE 18 30 30.35 1028 10 16 N/A
9:56 am 09:56 Sunny 34 1.1 20 -6.7 56 56 NE 15 24 30.38 1029 10 16 N/A
10:56 am 10:56 Sunny 37 2.8 22 -5.6 54 54 NE 16 26 30.41 1030 10 16 N/A
11:56 am 11:56 Sunny 39 3.9 21 -6.1 48 48 NE 20 31 30.42 1030 10 16 N/A
12:56 pm 12:56 Sunny 41 5 22 -5.6 47 47 NE 21 33 30.43 1031 10 16 N/A
1:56 pm 13:56 Sunny 43 6.1 22 -5.6 43 43 ENE 21 33 30.43 1031 10 16 N/A
2:56 pm 14:56 Sunny 45 7.2 23 -5 42 42 NE 16 26 30.42 1030 10 16 N/A
3:56 pm 15:56 Sunny 45 7.2 23 -5 42 42 NNE 16 26 30.42 1030 10 16 N/A
4:56 pm 16:56 Sunny 45 7.2 25 -3.9 46 46 NNE 15 24 30.43 1030 10 16 N/A
5:56 pm 17:56 Sunny 44 6.7 25 -3.9 47 47 NNE 16 26 30.43 1031 10 16 N/A
6:56 pm 18:56 Sunny 42 5.6 25 -3.9 51 51 NNE 14 22 30.45 1031 10 16 N/A
7:56 pm 19:56 Clear 39 3.9 25 -3.9 57 57 NNE 13 20 30.46 1031 10 16 N/A
8:56 pm 20:56 Clear 36 2.2 25 -3.9 64 64 NNE 13 20 30.47 1032 10 16 N/A
9:56 pm 21:56 Clear 34 1.1 25 -3.9 70 70 NNE 13 20 30.50 1033 10 16 N/A
10:56 pm 22:56 Clear 30 -1.1 24 -4.4 79 79 NE 9 15 30.51 1033 10 16 N/A
11:56 pm 23:56 Clear 28 -2.2 22 -5.6 78 78 NE 9 15 30.51 1033 10 16 N/A

Powered by AerisWeather